Location: Newark
(42.9858°N, 0.6717°E)
Time: 23:46:15
(UTC+00:00)

Envisat - Pass Details

Date: 23 October 2019
Orbit: 764 x 766 km, 98.1° (Epoch: 14 November)

Event Time Altitude Azimuth Distance (km) Brightness Sun altitude
Rises 18:57:06 0° 197° (SSW) 3,219 6.4 -21.6°
Reaches altitude 10° 18:59:46 10° 210° (SSW) 2,297 5.8 -22.1°
Maximum altitude 19:03:56 26° 266° (W) 1,492 5.2 -22.8°
Drops below altitude 10° 19:08:08 10° 322° (NW) 2,311 6.0 -23.6°
Sets 19:10:50 0° 335° (NNW) 3,242 6.7 -24.1°
